Tracking 19817 objects as of 17-Aug-2019
HD Live streaming from Space Station
objects crossing your sky now

COSMOS 2251 DEB

Track COSMOS 2251 DEB now!
10-day predictions


NORAD ID: 34388
Int'l Code: 1993-036QD
Perigee: 759.8 km
Apogee: 781.6 km
Inclination: 74.0 °
Period: 100.1 minutes
Semi major axis: 7141 km
RCS: 0.032 m2 (small)
Launch date: June 16, 1993
Source: Commonwealth of Independent States (former USSR) (CIS)
Launch site: PLESETSK MISSILE AND SPACE COMPLEX (PKMTR)

Note: This is SATELLITE DEBRIS
aabbcc
Your satellite tracking list
Your tracking list is empty




NASA's NSSDC Master Catalog

Two Line Element Set (TLE):
1 34388U 93036QD  19228.91176646 +.00000237 +00000-0 +85949-4 0  9990
2 34388 074.0440 179.8202 0015273 079.0791 335.7583 14.38463629548723
Source of the keplerian elements: AFSPC